Starlink 31908

operational
NORAD ID: 59901 Int'l Des: 2024-100 Owner: SPXS Country: US Constellation: starlink
LEOCIRCULAR

Über Starlink 31908

Beschreibung wird geladen...

Live-Position

3D-Globus wird geladen...

Nächste Überflüge

Höhenverlauf

Altitude vs Time

uPlot chart will show altitude changes over time

Zweizeiliger Elementsatz

1 59901U 24100S 25260.05804164 .00001790 00000-0 74575-4 0 9993
2 59901 43.0065 18.9285 0001721 277.2069 82.8587 15.27579342 74678
Epoch: 17. Sept. 2025 • Age: 25 hours

Aktueller Status

Höhe 486.4 km
Geschwindigkeit 7.63 km/s
Subsatellitenpunkt 39.78°N, 36.19°E
Startdatum 28. Mai 2024
Alter 1.3 years
Typ internet

Technische Details

Klassifizierung Payload
Masse 730.00 kg
Trockenmasse 700.00 kg
Gesamtmasse 730.00 kg
Länge 0.30 m
Durchmesser 4.10 m
Spannweite 29.00 m
Form Box + pan
Hersteller SPXS
Bus-Typ Starlink V2M
Phasenstatus In Orbit
Besitzer/Staat SPXS/US

Große Konstellationen

Loading constellations...